Location: Unspecified
(43.1763°N, 179.4719°W)
Time: 09:47:33
(UTC-04:00)

CZ-3 Stage 3 - Visible Passes

Search period start: 20 May 2019 00:00
Search period end: 30 May 2019 00:00
Orbit: 502 x 34689 km, 30.5° (Epoch: 19 May)

Date Brightness Start Highest point End Pass type
(mag) Time Alt. Az. Time Alt. Az. Time Alt. Az.
21 May 6.1 09:47:04 10° WSW 10:02:45 63° S 18:16:25 10° S visible
22 May 5.2 06:18:17 29° SE 06:18:45 29° SE 06:46:48 10° E visible
24 May 6.1 09:36:53 10° WSW 09:52:25 63° S 18:03:45 10° S visible
25 May 5.0 06:07:26 29° SE 06:08:29 30° SE 06:35:36 10° E visible
27 May 6.1 09:26:47 10° WSW 09:42:05 62° S 17:51:00 10° S visible
28 May 4.7 05:56:12 28° SSE 05:58:12 30° SE 06:24:26 10° E visible
